Vorticity
1 1 0 -0 6 6 3 5 4 3 4 5 5 4 5 5 4 4 5 5 5 4 5 4 5 5 5 6 4 6 8 9 9 7 3 2 2 7 4 8 5 10 6
-1 -3 -1 4 1 2 8 2 3 4 2 2 4 5 4 5 4 4 4 3 3 3 3 5 7 5 6 7 5 6 9 6 10 12 5 4 4 10 2 2 5 4 13
-2 -3 6 -3 5 5 6 8 1 0 1 3 3 4 6 5 5 4 5 8 10 9 8 8 7 5 4 4 5 5 7 11 7 14 9 5 2 2 -0 1 1 5 5
-2 -3 5 -3 1 9 5 6 8 4 -1 -3 1 4 5 6 4 4 4 6 7 7 7 5 5 4 5 5 7 5 6 8 9 12 12 6 2 1 0 -0 0 3 4
-1 -3 -1 1 -1 7 -0 3 0 2 9 5 4 3 3 6 5 4 5 5 4 4 5 5 5 7 5 5 4 5 5 4 9 9 12 10 5 3 2 -2 1 3 3
1 -1 -2 3 0 4 2 1 -5 2 2 6 1 6 4 5 5 3 5 6 5 5 6 4 3 5 3 3 4 5 6 6 9 8 8 12 8 8 5 1 7 7 2
1 -2 2 3 -2 5 7 -8 7 -0 5 5 8 8 7 5 3 -1 8 4 3 5 6 4 5 6 4 2 5 6 8 7 6 10 5 7 11 10 8 7 7 6 8
1 -1 1 2 6 6 1 1 -3 2 -3 9 6 7 6 6 5 -2 2 3 5 4 4 5 6 5 4 3 7 6 6 8 7 8 7 3 4 7 6 6 7 7 10
-3 -1 3 7 4 7 5 4 0 4 8 24 5 3 6 4 -1 -7 19 12 6 6 6 5 6 5 3 8 11 7 10 7 8 6 10 4 6 2 5 4 0 0 4
-4 -4 12 9 6 15 -8 37 34 16 22 8 14 9 6 2 9 21 1 5 6 6 2 4 3 5 5 9 9 8 8 7 8 7 7 9 8 9 6 2 -0 0 3
-3 13 34 23 35 51 17 26 14 13 13 18 19 11 13 12 8 7 8 8 4 2 3 1 5 10 6 7 -0 4 4 4 3 5 7 8 9 9 3 4 2 0 2
5 10 -15 23 18 10 -2 11 8 5 5 6 4 3 3 3 4 1 -0 -0 2 3 9 7 6 -0 5 2 8 4 6 3 9 9 12 13 10 8 9 5 6 5 4
3 6 11 27 5 11 10 5 5 3 11 6 6 7 4 5 3 5 8 3 -8 1 5 9 5 8 6 6 3 6 9 11 12 11 11 9 10 9 8 6 7 7 7
1 -9 -10 15 14 11 8 10 13 8 5 5 8 5 5 2 -1 1 1 3 1 2 -8 -8 1 2 10 5 12 12 9 9 10 11 7 7 8 7 6 5 5 6 6
41 33 30 4 5 6 2 3 6 1 2 2 6 3 1 -3 2 2 1 5 5 6 -9 4 11 8 -0 3 6 10 7 8 7 7 6 5 5 5 6 6 6 5 5
17 4 -2 -13 -11 -12 10 9 10 6 8 10 -2 7 5 5 6 9 4 9 9 14 20 12 7 8 9 9 6 5 6 6 7 7 6 7 7 7 6 5 5 5 4
-31 -4 -4 13 4 -4 8 7 3 8 -2 3 -0 3 4 6 10 5 11 10 8 9 10 12 9 8 8 9 9 9 10 11 9 9 8 9 9 9 8 7 6 7 8
-4 3 2 0 3 3 7 7 6 6 4 5 6 10 6 8 5 10 7 8 10 7 7 7 9 11 9 11 11 11 9 9 8 10 8 8 8 7 8 9 10 10 10
17 4 4 11 10 9 8 5 4 6 6 6 5 9 15 11 6 7 7 7 8 9 8 8 9 11 9 10 8 8 6 6 7 7 6 4 5 4 4 4 3 5 7
13 11 12 6 5 3 5 5 6 3 12 16 10 6 6 5 5 6 8 8 7 8 12 13 10 7 7 6 8 7 8 6 7 6 4 4 4 5 5 4 7 5 4
6 5 4 4 5 5 7 11 14 13 7 6 5 5 5 7 8 8 8 9 11 9 7 7 8 7 6 3 5 6 5 7 13 11 9 13 10 11 11 11 9 7 4
5 4 5 6 11 12 12 9 6 6 4 4 5 6 7 8 10 12 12 8 9 10 6 5 1 5 5 5 10 15 12 16 21 21 24 28 31 30 30 28 26 28 28
7 10 13 11 6 5 5 4 5 4 4 7 6 8 10 11 9 6 8 8 6 4 3 5 6 6 8 13 17 25 25 28 30 30 27 28 26 27 32 34 37 35 35
11 7 6 5 4 3 4 4 5 6 6 10 11 11 9 5 6 7 3 3 4 6 5 6 11 22 26 28 25 24 25 25 27 25 23 25 22 24 26 28 25 23 19
5 3 5 3 4 4 7 7 8 12 11 10 10 5 6 5 4 7 8 7 3 8 8 25 33 27 24 25 27 23 23 24 25 22 20 23 26 23 20 8 5 10 16
5 4 5 4 9 5 10 12 13 10 9 4 5 2 5 8 11 6 3 6 9 14 34 29 21 21 24 27 22 19 22 21 18 19 23 22 16 13 5 9 18 17 16
Height
5842 5842 5844 5845 5845 5845 5845 5844 5844 5843 5842 5841 5839 5838 5837 5835 5834 5832 5831 5829 5827 5825 5824 5821 5819 5816 5814 5812 5809 5806 5803 5801 5798 5796 5794 5791 5788 5784 5780 5777 5773 5769 5765
5837 5838 5840 5841 5842 5841 5841 5840 5840 5839 5838 5837 5836 5834 5833 5831 5829 5827 5826 5825 5823 5821 5819 5817 5814 5812 5810 5808 5805 5801 5799 5796 5794 5791 5790 5787 5784 5781 5778 5774 5771 5767 5763
5833 5834 5836 5837 5837 5837 5837 5836 5835 5834 5833 5833 5832 5830 5828 5826 5824 5823 5821 5819 5818 5816 5814 5812 5810 5807 5805 5802 5800 5797 5794 5792 5789 5786 5784 5782 5780 5777 5774 5771 5768 5765 5761
5828 5829 5830 5831 5831 5831 5831 5831 5830 5830 5828 5827 5826 5825 5823 5821 5819 5817 5815 5814 5812 5810 5808 5806 5804 5801 5799 5797 5795 5792 5789 5787 5784 5781 5779 5777 5776 5773 5770 5767 5764 5761 5758
5823 5824 5825 5825 5826 5826 5825 5825 5824 5824 5823 5821 5820 5819 5818 5816 5814 5811 5809 5807 5805 5803 5801 5799 5797 5795 5793 5790 5788 5785 5783 5780 5778 5775 5773 5771 5770 5768 5765 5762 5760 5757 5754
5816 5817 5819 5819 5820 5819 5819 5818 5818 5817 5816 5815 5813 5812 5811 5809 5807 5805 5803 5801 5799 5796 5794 5793 5791 5789 5786 5784 5781 5779 5777 5774 5771 5768 5766 5764 5762 5761 5759 5756 5754 5752 5749
5809 5811 5812 5813 5812 5812 5811 5811 5810 5809 5807 5806 5805 5804 5802 5801 5800 5798 5795 5794 5792 5791 5788 5786 5783 5781 5778 5776 5773 5771 5769 5766 5764 5760 5758 5756 5754 5752 5751 5749 5747 5745 5743
5804 5805 5805 5805 5805 5804 5803 5801 5800 5799 5798 5797 5796 5795 5793 5792 5791 5789 5788 5786 5784 5781 5779 5776 5774 5772 5769 5767 5765 5763 5760 5758 5756 5753 5750 5748 5746 5743 5742 5741 5740 5738 5736
5795 5796 5797 5796 5795 5793 5791 5791 5790 5789 5788 5787 5786 5785 5784 5782 5781 5780 5779 5777 5774 5772 5771 5768 5765 5762 5759 5757 5756 5754 5751 5748 5746 5744 5741 5738 5736 5735 5733 5731 5729 5729 5728
5786 5787 5787 5786 5785 5782 5780 5779 5779 5779 5777 5776 5776 5774 5774 5772 5772 5770 5769 5767 5765 5763 5760 5758 5755 5753 5750 5747 5745 5742 5740 5737 5735 5733 5731 5729 5726 5725 5722 5721 5720 5718 5718
5776 5776 5775 5774 5773 5771 5771 5770 5768 5769 5768 5766 5765 5765 5763 5764 5764 5762 5760 5757 5754 5751 5749 5746 5744 5741 5738 5736 5732 5730 5728 5725 5722 5719 5716 5715 5714 5713 5711 5709 5708 5708 5707
5765 5766 5766 5763 5764 5762 5761 5761 5760 5760 5759 5758 5757 5756 5756 5755 5754 5753 5750 5747 5745 5741 5737 5733 5731 5728 5725 5723 5720 5717 5714 5711 5709 5705 5703 5702 5700 5700 5700 5697 5696 5696 5696
5754 5754 5756 5755 5755 5754 5754 5754 5754 5753 5753 5750 5748 5747 5746 5744 5742 5741 5739 5737 5735 5731 5726 5720 5717 5714 5711 5708 5704 5701 5698 5696 5694 5692 5689 5688 5687 5685 5684 5685 5684 5683 5683
5743 5742 5745 5746 5746 5746 5747 5746 5746 5745 5743 5741 5741 5738 5736 5733 5731 5728 5726 5723 5722 5719 5714 5709 5701 5696 5693 5690 5687 5684 5682 5679 5678 5676 5674 5671 5670 5669 5668 5667 5667 5668 5667
5729 5731 5736 5738 5739 5738 5738 5738 5737 5736 5734 5732 5731 5727 5723 5719 5718 5715 5711 5707 5705 5703 5700 5695 5689 5685 5679 5674 5668 5667 5664 5662 5660 5658 5656 5654 5653 5652 5650 5649 5649 5649 5649
5725 5726 5728 5729 5730 5730 5730 5729 5727 5725 5723 5721 5718 5714 5710 5706 5701 5698 5694 5690 5686 5683 5681 5678 5673 5668 5663 5659 5654 5651 5647 5643 5641 5638 5637 5635 5633 5631 5630 5629 5629 5628 5628
5719 5719 5719 5719 5719 5719 5718 5717 5716 5713 5710 5708 5704 5699 5696 5691 5686 5682 5677 5673 5668 5664 5662 5659 5653 5647 5643 5639 5635 5631 5627 5624 5620 5616 5613 5611 5609 5608 5606 5604 5604 5603 5604
5711 5709 5707 5706 5707 5707 5707 5704 5703 5700 5697 5693 5689 5684 5680 5676 5672 5667 5662 5655 5650 5644 5641 5638 5633 5626 5621 5616 5612 5608 5604 5601 5596 5593 5589 5585 5582 5581 5580 5578 5576 5574 5574
5695 5695 5695 5695 5696 5694 5692 5691 5689 5686 5682 5678 5674 5670 5665 5660 5655 5648 5642 5636 5630 5625 5619 5615 5611 5604 5599 5593 5589 5585 5582 5577 5572 5568 5563 5559 5555 5552 5550 5548 5546 5546 5546
5683 5685 5685 5686 5682 5680 5679 5677 5675 5672 5668 5664 5659 5654 5648 5642 5636 5631 5625 5618 5612 5607 5600 5594 5588 5582 5576 5570 5565 5561 5558 5551 5546 5538 5532 5526 5524 5522 5516 5513 5513 5510 5510
5674 5675 5674 5670 5667 5667 5667 5664 5661 5657 5652 5647 5641 5635 5630 5624 5617 5612 5606 5601 5594 5586 5579 5572 5566 5558 5552 5545 5538 5531 5525 5520 5514 5502 5496 5491 5486 5480 5475 5473 5471 5469 5468
5660 5659 5658 5656 5656 5654 5652 5648 5646 5641 5636 5631 5625 5619 5613 5606 5599 5593 5586 5579 5571 5563 5556 5549 5541 5532 5523 5514 5505 5496 5486 5481 5478 5464 5453 5457 5442 5441 5436 5432 5429 5426 5426
5648 5648 5646 5644 5641 5639 5637 5633 5629 5625 5620 5614 5608 5602 5595 5588 5581 5574 5567 5561 5551 5539 5529 5520 5513 5502 5492 5479 5470 5461 5450 5443 5438 5429 5416 5425 5413 5412 5406 5404 5399 5396 5396
5636 5635 5634 5632 5628 5625 5622 5618 5614 5609 5604 5597 5590 5583 5576 5569 5561 5554 5548 5540 5530 5517 5504 5490 5478 5469 5456 5444 5432 5423 5419 5413 5410 5402 5392 5395 5391 5389 5386 5383 5378 5376 5375
5625 5623 5621 5619 5615 5611 5607 5603 5598 5593 5586 5580 5573 5566 5558 5551 5541 5534 5524 5515 5506 5494 5477 5463 5448 5435 5425 5415 5404 5395 5393 5388 5388 5384 5377 5373 5374 5372 5373 5370 5362 5359 5357
5613 5611 5607 5604 5600 5596 5591 5585 5580 5575 5570 5563 5556 5548 5538 5530 5519 5507 5496 5487 5480 5468 5453 5439 5424 5410 5399 5392 5384 5376 5372 5370 5368 5368 5362 5362 5359 5355 5362 5357 5350 5344 5339